Date,TemperatureHighF,TemperatureAvgF,TemperatureLowF,DewpointHighF,DewpointAvgF,DewpointLowF,HumidityHigh,HumidityAvg,HumidityLow,PressureMaxIn,PressureMinIn,WindSpeedMaxMPH,WindSpeedAvgMPH,GustSpeedMaxMPH,PrecipitationSumIn
2013-5-1,68.7,53.0,37.6,42.7,37.4,31.5,82,58,34,30.68,30.56,15,2,15,0.00
2013-5-2,78.4,62.2,47.8,46.7,39.6,33.5,64,45,28,30.59,30.35,15,3,15,0.00
2013-5-3,76.1,63.7,50.5,50.5,42.0,35.3,61,46,33,30.43,30.24,16,4,16,0.00
2013-5-4,82.2,68.2,53.4,51.1,43.4,36.0,69,44,25,30.28,30.02,9,1,9,0.00
2013-5-5,84.0,70.3,54.7,47.8,43.8,36.7,63,40,27,30.02,29.82,10,1,10,0.00
2013-5-6,82.2,64.5,54.7,55.9,42.5,-99.9,69,51,36,30.02,29.85,8,-62,8,0.00
2013-5-7,75.0,63.0,51.6,55.8,50.9,46.3,83,66,48,30.16,29.99,8,1,8,0.00
2013-5-8,69.4,59.6,53.4,55.5,51.0,47.5,84,74,60,30.29,30.16,7,1,7,0.00
2013-5-9,77.4,62.2,51.1,56.7,50.6,-99.9,86,69,45,30.35,30.18,11,-5,11,0.00
2013-5-10,82.2,68.1,54.0,59.6,54.3,48.6,83,64,40,30.34,30.19,8,1,8,0.00
2013-5-11,86.2,69.1,57.0,65.1,53.4,-99.9,76,61,42,30.31,30.09,11,-13,11,0.00
2013-5-12,75.4,65.5,58.8,62.9,57.2,54.2,87,75,59,30.25,30.16,5,0,5,0.18
2013-5-13,72.3,61.2,52.0,60.0,52.5,42.8,88,74,54,30.34,30.15,9,1,9,0.00
2013-5-14,67.6,56.6,46.9,46.4,43.2,40.7,85,63,43,30.36,30.22,11,1,11,0.00
2013-5-15,65.1,56.9,51.3,53.9,48.6,43.3,83,74,65,30.24,30.14,3,0,3,0.04
2013-5-16,70.0,57.4,52.5,59.1,50.4,-99.9,87,81,64,30.15,30.05,4,-14,4,0.18
2013-5-17,68.7,55.1,48.4,54.1,44.8,-99.9,88,76,1,30.23,30.11,6,-20,6,0.02
2013-5-18,62.8,40.2,51.8,54.3,7.6,-99.9,87,59,71,30.41,30.22,57,-301,57,0.26
2013-5-19,67.6,57.9,52.0,50.6,48.6,45.0,88,72,50,30.54,30.41,9,2,9,0.00
2013-5-20,76.8,58.8,47.1,53.6,48.0,42.5,85,69,43,30.48,30.02,6,1,6,0.00
2013-5-21,60.1,44.6,45.1,49.3,28.3,-99.9,88,74,66,30.12,29.95,7,-105,7,0.43
2013-5-22,50.7,46.7,43.9,47.2,43.2,40.3,89,88,87,30.12,30.08,4,0,4,0.67
2013-5-23,57.6,49.8,46.0,52.6,46.2,42.9,89,88,82,30.18,30.11,5,1,5,0.90
2013-5-24,61.7,53.7,47.8,54.7,48.6,-99.9,89,84,25,30.23,30.12,4,0,4,0.35
2013-5-25,67.8,47.3,49.3,55.2,24.8,-99.9,89,66,53,30.22,30.05,7,-140,7,0.00
2013-5-26,73.6,59.4,53.8,57.4,47.8,-99.9,88,72,52,30.14,30.06,4,-24,4,0.10
2013-5-27,70.9,57.9,52.2,61.1,52.0,46.9,88,81,63,30.11,29.86,8,0,8,0.61
2013-5-28,67.8,57.3,52.5,57.0,51.6,48.4,87,81,65,30.06,29.97,5,0,5,0.02
2013-5-29,71.2,58.2,52.0,56.7,50.6,44.7,88,77,54,30.18,29.76,6,1,7,0.45
2013-5-30,65.5,56.8,49.8,54.5,49.2,44.9,86,76,63,30.38,30.18,6,0,6,0.02
2013-5-31,72.1,59.6,50.9,51.1,47.9,45.8,86,67,45,30.47,30.34,9,1,9,0.00